Simultaneous Nadir Overpasses (SNOs) Predictions

Prediction of SNOs between FY3D and LANDSAT-8 Satellite Orbit:

Table of predicted SNOs for the next 14.0 days since TLE Epoch: 1/11/2020
Index Date (FY3D) Time (FY3D) Lat,Lon (FY3D) SZA (FY3D ) Date (LANDSAT-8) Time (LANDSAT-8) Lat,Lon (LANDSAT-8) SZA (LANDSAT-8 ) Distance(km) Time Diff (sec)
1 01/12/2020 16:19:49 -70.50, 111.77 87.88 01/12/2020 16:20:54 -70.47, 111.77 87.92 2.88 65
2 01/12/2020 17:10:33 70.38, -80.73 91.99 01/12/2020 17:10:21 70.37, -80.74 91.98 1.23 12
3 01/12/2020 18:01:07 -69.92, 87.30 88.50 01/12/2020 17:59:56 -69.98, 86.34 88.40 37.36 71
4 01/15/2020 08:36:13 -70.50,-132.33 88.34 01/15/2020 08:37:22 -70.48,-132.34 88.36 1.97 69
5 01/15/2020 09:26:57 70.38, 35.17 91.54 01/15/2020 09:26:49 70.37, 35.14 91.53 1.24 8
6 01/15/2020 10:17:34 -70.07,-157.04 88.79 01/15/2020 10:16:21 -70.16,-157.54 88.69 21.16 73
7 01/18/2020 00:52:39 -70.55, -16.51 88.78 01/18/2020 00:53:50 -70.55, -16.36 88.80 5.50 71
8 01/18/2020 01:43:22 70.38, 151.06 91.04 01/18/2020 01:43:18 70.38, 151.04 91.04 1.08 4
9 01/18/2020 02:34:02 -70.23, -41.38 89.13 01/18/2020 02:32:49 -70.23, -41.56 89.12 6.83 73
10 01/20/2020 17:09:07 -70.71, 99.13 89.17 01/20/2020 17:10:18 -70.62, 99.62 89.28 20.39 71
11 01/20/2020 17:59:47 70.38, -93.04 90.49 01/20/2020 17:59:47 70.40, -93.06 90.51 2.03 0
12 01/20/2020 18:50:28 -70.28, 74.44 89.63 01/20/2020 18:49:17 -70.30, 74.43 89.60 2.19 71
13 01/23/2020 09:25:35 -70.87,-145.23 89.60 01/23/2020 09:26:46 -70.71,-144.37 89.79 36.02 71
14 01/23/2020 10:16:12 70.39, 22.85 89.90 01/23/2020 10:16:17 70.37, 22.77 89.89 3.23 5
15 01/23/2020 11:06:53 -70.28,-169.67 90.22 01/23/2020 11:05:47 -70.28,-169.74 90.22 2.76 66




NCC Satellite Simultaneous Nadir Overpasses (SNOs) Prediction Service
